Savannah, GA

1:18 PM EDT on August 19, 2017 (GMT -0400)
Savannah International

Weather History for KSAV - May, 2014

Change the Weather History Date:

Tuesday, May 6, 2014

  Actual Average Record
Temperature  
Mean Temperature 77 °F 71 °F  
Max Temperature 92 °F 83 °F 96 °F (1952)
Min Temperature 62 °F 59 °F 46 °F (1957)
Degree Days  
Heating Degree Days 0 1  
Month to date heating degree days 0 6  
Since 1 July heating degree days 1682 1809  
Cooling Degree Days 12 6  
Month to date cooling degree days 39 34  
Year to date cooling degree days 207 170  
Growing Degree Days 26 (Base 50)    
Moisture  
Dew Point 56 °F    
Average Humidity 52    
Maximum Humidity 78    
Minimum Humidity 26    
Precipitation  
Precipitation 0.00 in 0.09 in 1.25 in (1873)
Month to date precipitation 0.18 0.50  
Year to date precipitation 12.49 13.78  
Sea Level Pressure  
Sea Level Pressure 29.97 in    
Wind  
Wind Speed 7 mph (SW)    
Max Wind Speed 18 mph    
Max Gust Speed 23 mph    
Visibility 10 miles    
Events      
T = Trace of Precipitation, MM = Missing Value Source: NWS Daily Summary

Daily Weather History Graph

Daily Weather History Graph

Search for Another Location

Airport or City:

Trip Planner

Search our weather history database for the weather conditions in past years. The results will help you decide how hot, cold, wet, or windy it might be!

Date:

Astronomy

May. 06, 2014 Rise Set
Actual Time 6:34 AM EDT 8:09 PM EDT
Civil Twilight 6:07 AM EDT 8:35 PM EDT
Nautical Twilight 5:36 AM EDT 9:07 PM EDT
Astronomical Twilight 5:03 AM EDT 9:40 PM EDT
Moon 12:44 PM EDT (5/6) 1:30 AM EDT (5/6)
Length of Visible Light 14h 27m
Length of Day
13h 34m
Waxing Crescent, 46% of the Moon is Illuminated
May 6
Waxing Crescent
May 6
First Quarter
May 14
Full
May 21
Last Quarter
May 28
New

Hourly Weather History & Observations

Time (EDT) Temp. Heat Index Dew Point Humidity Pressure Visibility Wind Dir Wind Speed Gust Speed Precip Events Conditions
12:53 AM 71.1 °F - 57.0 °F 61% 29.96 in 10.0 mi SSW 5.8 mph - N/A   Clear
1:53 AM 69.1 °F - 57.0 °F 65% 29.95 in 10.0 mi SSW 4.6 mph - N/A   Clear
2:53 AM 66.9 °F - 55.9 °F 68% 29.94 in 10.0 mi SSW 8.1 mph - N/A   Clear
3:53 AM 66.0 °F - 55.9 °F 70% 29.94 in 10.0 mi Calm Calm - N/A   Clear
7:53 AM 66.9 °F - 57.9 °F 73% 30.00 in 10.0 mi West 4.6 mph - N/A   Clear
8:53 AM 75.0 °F - 59.0 °F 57% 30.01 in 10.0 mi WNW 6.9 mph - N/A   Clear
10:53 AM 84.9 °F 85.0 °F 61.0 °F 44% 30.02 in 10.0 mi WNW 8.1 mph - N/A   Clear
11:53 AM 87.1 °F 86.5 °F 59.0 °F 39% 30.02 in 10.0 mi West 10.4 mph - N/A   Clear
12:53 PM 89.1 °F 87.7 °F 57.0 °F 34% 30.00 in 10.0 mi West 12.7 mph 17.3 mph N/A   Mostly Cloudy
1:53 PM 90.0 °F 87.9 °F 55.0 °F 30% 29.99 in 10.0 mi West 11.5 mph - N/A   Clear
2:53 PM 91.0 °F 88.7 °F 54.0 °F 28% 29.97 in 10.0 mi West 9.2 mph 21.9 mph N/A   Clear
3:53 PM 91.0 °F 88.5 °F 53.1 °F 27% 29.95 in 10.0 mi SW 5.8 mph 18.4 mph N/A   Clear
4:53 PM 91.9 °F - 52.0 °F 26% 29.94 in 10.0 mi WSW 9.2 mph - N/A   Clear
5:53 PM 91.0 °F 88.5 °F 53.1 °F 27% 29.94 in 10.0 mi SW 10.4 mph - N/A   Clear
6:53 PM 89.1 °F - 52.0 °F 28% 29.94 in 10.0 mi WSW 6.9 mph - N/A   Clear
7:53 PM 84.0 °F 82.5 °F 53.1 °F 34% 29.95 in 10.0 mi SSW 5.8 mph - N/A   Clear
8:53 PM 79.0 °F - 55.0 °F 44% 29.97 in 10.0 mi South 5.8 mph - N/A   Clear
9:53 PM 73.0 °F - 60.1 °F 64% 29.99 in 10.0 mi South 6.9 mph - N/A   Clear
10:53 PM 73.9 °F - 61.0 °F 64% 30.00 in 10.0 mi South 10.4 mph - N/A   Clear
11:53 PM 73.0 °F - 59.0 °F 61% 30.01 in 10.0 mi SSW 8.1 mph - N/A   Clear